Regional Weather Roundup
Issued by NWS

Home | Current Version | Previous Version | Text Only | Print | Product List | Glossary Off
Versions: 1 2 3 4 5 6 7 8 9 10 11 12 13 14 15 16 17 18 19 20 21 22 23 24 25 26 27 28 29 30 31 32 33 34 35 36 37 38 39 40 41 42 43 44 45 46 47 48 49 50

000
ASUS43 KMPX 050010
RWRMN
WEATHER ROUNDUP FOR MINNESOTA
NATIONAL WEATHER SERVICE TWIN CITIES/CHANHASSEN MN
700 PM CDT WED MAY 04 2016


NOTE: "FAIR" INDICATES FEW OR NO CLOUDS BELOW 12,000 FEET WITH NO
SIGNIFICANT WEATHER AND/OR OBSTRUCTIONS TO VISIBILITY. N/A MEANS
CURRENT SKY AND/OR WEATHER CONDITIONS ARE NOT AVAILABLE.

MNZ060>063-068>070-050100-
   Twin Cities Metro

CITY           SKY/WX    TMP DP  RH WIND       PRES   REMARKS
TWIN CITIES    SUNNY     65  24  21 N10       29.94S
6HR MIN TEMP:  63; 6HR MAX TEMP:  66;

ST PAUL        SUNNY     64  25  22 N12       29.94R
CRYSTAL        SUNNY     66  22  18 NW12      29.94R
BLAINE         SUNNY     64  21  19 N13G18    29.94S
EDEN PRAIRIE   SUNNY     65  19  17 N13G18    29.94R
6HR MIN TEMP:  62; 6HR MAX TEMP:  68;

SOUTH ST PAUL  SUNNY     65  21  18 N8        29.93S
LAKE ELMO      FAIR      63  25  23 N8        29.95S
$$
MNZ001>005-007-008-013>017-022>024-027-028-050100-
   Northwest Minnesota

CITY           SKY/WX    TMP DP  RH WIND       PRES   REMARKS
BEMIDJI        SUNNY     61  22  22 N7        29.98F
HALLOCK        MOSUNNY   70  18  13 S5        29.94F
ROSEAU         SUNNY     66  28  24 SW5       29.96F
WARROAD        SUNNY     55  34  44 E6        29.97F
THIEF RVR FALL MOSUNNY   66  28  24 W7        29.98F
CROOKSTON      SUNNY     70  28  21 NW3       29.97F
FOSSTON        SUNNY     66  23  19 N6        29.99S
DETROIT LAKES  SUNNY     64  27  24 N9        29.99F
MOORHEAD       SUNNY     68  27  21 NW7       29.98F
PARK RAPIDS    SUNNY     66  24  20 N7        29.96F
MAHNOMEN       FAIR      66  25  21 N6        29.98S
$$
MNZ006-009>011-018-025>026-050100-
   North Central Minnesota

CITY           SKY/WX    TMP DP  RH WIND       PRES   REMARKS
BAUDETTE       SUNNY     60  22  23 N6        29.98F
FLAG ISLAND    CLOUDY    50  39  66 S3        29.97R
INTL FALLS     SUNNY     60  19  20 E3        29.97S
6HR MIN TEMP:  55; 6HR MAX TEMP:  61;

WASKISH        SUNNY     61  19  20 N7        29.98F
BIG FORK       SUNNY     63  18  17 N6        29.97S
LONGVILLE      SUNNY     61  18  18 W8        29.97S
GRAND RAPIDS   SUNNY     63  19  19 N13       29.97F
CRANE LAKE     SUNNY     57  16  19 CALM      29.98F
ORR            SUNNY     59   9  13 CALM      29.95S
COOK           SUNNY     59  18  20 N5        29.97S
WALKER         FAIR      61  23  23 N8        29.98S
$$
MNZ012-019>021-037-050100-
   Northeast Minnesota

CITY           SKY/WX    TMP DP  RH WIND       PRES   REMARKS
DULUTH         SUNNY     52  26  36 SE10      29.96S
6HR MIN TEMP:  52; 6HR MAX TEMP:  62;

ELY            SUNNY     57  16  19 N3        29.96S
HIBBING        SUNNY     59  17  19 N12       29.96R
EVELETH        SUNNY     59  14  17 N6        29.97S
DULUTH HARBOR  SUNNY     45  36  70 NE12      29.98F
TWO HARBORS    SUNNY     54  34  47 E5        29.96S
SILVER BAY     SUNNY     48  28  46 E3        29.96S
GRAND MARAIS     N/A     41  34  76 W6        29.99S
G MARAIS ARPRT SUNNY     45  28  53 S5        29.96S
$$
MNZ029>031-032-039>041-046>048-054>057-064-050100-
   West Central Minnesota

CITY           SKY/WX    TMP DP  RH WIND       PRES   REMARKS
FERGUS FALLS   SUNNY     66  30  26 N9        29.95F
WHEATON        SUNNY     70  34  26 NW9G16    30.00S
MORRIS         SUNNY     66  30  26 N13G18    29.98S
ALEXANDRIA     SUNNY     64  26  23 N8        29.99S
ELBOW LAKE     FAIR      66  32  28 N9        29.99S
WADENA         SUNNY     66  28  24 NW7       29.97S
GLENWOOD       SUNNY     64  27  24 NW12      29.99S
APPLETON       SUNNY     70  23  17 N13G20    29.98R
BENSON         SUNNY     68  19  15 NE10G18   29.98S
ORTONVILLE     SUNNY     68  28  22 NW9       29.99S
MADISON        SUNNY     68  27  21 N15       29.98F
WILLMAR        FAIR      66  30  26 NW12G17   29.98S
$$
MNZ033>034-036-042>043-049>051-058-059-050100-
   Central Minnesota

CITY           SKY/WX    TMP DP  RH WIND       PRES   REMARKS
ST CLOUD       SUNNY     65  22  19 N10       29.95F
6HR MIN TEMP:  62; 6HR MAX TEMP:  66;

SAUK CENTRE    FAIR      65  26  22 N10       29.97S
PAYNESVILLE    SUNNY     66  20  16 N9G16     29.97S
AITKIN         SUNNY     66   7   9 N10       29.94S
PINE RIVER     SUNNY     63  28  27 N12       30.01S
BRAINERD       SUNNY     62  22  21 N12       29.97F
STAPLES        SUNNY     64  19  17 N7        29.97S
LONG PRAIRIE   FAIR      64  23  20 N9        29.97F
LITTLE FALLS   SUNNY     63  21  20 NE5       29.96F
LITCHFIELD     SUNNY     66  27  22 N8        29.96S
BUFFALO        SUNNY     64  22  20 NW9       29.96S
MAPLE LAKE     SUNNY     65  26  23 N12       29.97S
HUTCHINSON     MOSUNNY   65  31  28 N9        29.96F
$$
MNZ037-044-045-052-053-050100-
   East Central Minnesota

CITY           SKY/WX    TMP DP  RH WIND       PRES   REMARKS
PRINCETON      SUNNY     64  19  17 N12       29.96S
MORA           SUNNY     63  23  22 N6G16     29.97S
CAMBRIDGE      SUNNY     66  37  34 NW8       29.93S
RUSH CITY      SUNNY     63  24  22 N8        29.95R
MOOSE LAKE     SUNNY     63  25  23 N5        29.93S
HINCKLEY       CLOUDY    63  23  22 N8        29.95R
CLOQUET        SUNNY     55  23  28 E7        29.96R
MCGREGOR       SUNNY     63  21  20 N13       29.96S
$$
MNZ071>073-080-081-089-090-097-098-050100-
   Southwest Minnesota

CITY           SKY/WX    TMP DP  RH WIND       PRES   REMARKS
MONTEVIDEO     SUNNY     70  30  23 N12G20    29.99S
GRANITE FALLS  SUNNY     69  31  24 NW14G20   29.98F
CANBY          SUNNY     68  34  27 N10       30.00S
MARSHALL       SUNNY     68  30  24 N17       29.97F
REDWOOD FALLS  SUNNY     68  24  19 N10G18    29.96S
OLIVIA         SUNNY     68  32  26 NW14      29.96S
PIPESTONE      SUNNY     66  21  18 N8        29.99F
WINDOM         SUNNY     66  28  24 NW17      29.96F
WORTHINGTON    SUNNY     65  31  28 N20       29.98F
JACKSON        SUNNY     64  27  24 NW15      29.97F
TRACY          SUNNY     68  31  25 N14       29.98S
SLAYTON        SUNNY     65  29  26 NW14      29.99F
$$
MNZ065>067-074>077-082>085-091>093-050100-
   South Central Minnesota

CITY           SKY/WX    TMP DP  RH WIND       PRES   REMARKS
MANKATO        SUNNY     66  21  18 N14G20    29.95R
NEW ULM        SUNNY     66  25  20 N9G16     29.94F
ST JAMES       SUNNY     63  25  23 NW17      29.96S
FAIRMONT       SUNNY     66  30  26 N18       29.94S
GLENCOE        SUNNY     66  28  24 N10G16    29.95S
FARIBAULT      SUNNY     64  25  22 N13G22    29.94S
OWATONNA       SUNNY     63  19  19 N16G22    29.94R
WASECA         SUNNY     63  27  25 N15G23    29.95S
ALBERT LEA     SUNNY     64  21  19 N13G21    29.93S
$$
MNZ078>079-086>088-094>096-050100-
   Southeast Minnesota

CITY           SKY/WX    TMP DP  RH WIND       PRES   REMARKS
ROCHESTER      SUNNY     61  28  28 N17       29.93R
6HR MIN TEMP:  59; 6HR MAX TEMP:  64;

RED WING       SUNNY     64  19  17 NE12G17   29.92R
STANTON        SUNNY     65  23  20 N12G21    29.92S
DODGE CENTER   SUNNY     61  27  27 N14G21    29.93S
WINONA         SUNNY     63  25  23 N9G18     29.91R
AUSTIN         SUNNY     63  25  23 N14G20    29.92S
PRESTON        SUNNY     59  26  27 N13G23    29.91S
$$
ABBREVIATIONS USED IN REMARKS
   TC - TEMPERATURES IN CELSIUS
  WCI - WIND CHILL INDEX
   HX - HEAT INDEX
  VSB - VISIBILITY
$$




USA.gov is the U.S. government's official web portal to all federal, state and local government web resources and services.